Centerville, IA

5:43 AM CDT on April 27, 2017 (GMT -0500)
Centerville Municipal

Weather History for KTVK - August, 2013

Change the Weather History Date:

Saturday, August 17, 2013

  Actual Average Record
Temperature  
Mean Temperature 65 °F -  
Max Temperature 80 °F 85 °F 107 °F (1983)
Min Temperature 50 °F 65 °F 48 °F (2012)
Growing Degree Days 15 (Base 50)    
Moisture  
Dew Point 54 °F    
Average Humidity 73    
Maximum Humidity 100    
Minimum Humidity 42    
Precipitation  
Precipitation 0.00 in - - ()
Sea Level Pressure  
Sea Level Pressure 30.20 in    
Wind  
Wind Speed 0 mph (East)    
Max Wind Speed 8 mph    
Max Gust Speed -    
Visibility 10 miles    
Events      
Averages and records for this station are not official NWS values.
T = Trace of Precipitation, MM = Missing Value Source: NWS Daily Summary

Daily Weather History Graph

Daily Weather History Graph

Search for Another Location

Airport or City:

Trip Planner

Search our weather history database for the weather conditions in past years. The results will help you decide how hot, cold, wet, or windy it might be!

Date:

Astronomy

Aug. 17, 2013 Rise Set
Actual Time 6:24 AM CDT 8:06 PM CDT
Civil Twilight 5:55 AM CDT 8:35 PM CDT
Nautical Twilight 5:19 AM CDT 9:10 PM CDT
Astronomical Twilight 4:41 AM CDT 9:48 PM CDT
Moon 5:22 PM CDT (8/17) 2:27 AM CDT (8/17)
Length of Visible Light 14h 40m
Length of Day
13h 42m
Waxing Gibbous, 84% of the Moon is Illuminated
Aug 17
Waxing Gibbous
Aug 20
Full
Aug 28
Last Quarter
Sep 5
New
Sep 12
First Quarter

Hourly Weather History & Observations

Time (CDT) Temp. Heat Index Dew Point Humidity Pressure Visibility Wind Dir Wind Speed Gust Speed Precip Events Conditions
12:15 AM 53.6 °F - 53.6 °F 100% 30.21 in 10.0 mi Calm Calm - N/A   Clear
12:35 AM 53.6 °F - 51.8 °F 94% 30.21 in 10.0 mi Calm Calm - N/A   Clear
12:55 AM 53.6 °F - 53.6 °F 100% 30.21 in 10.0 mi Calm Calm - N/A   Clear
1:15 AM 51.8 °F - 51.8 °F 100% 30.21 in 10.0 mi Calm Calm - N/A   Clear
1:35 AM 51.8 °F - 50.0 °F 94% 30.21 in 10.0 mi Calm Calm - N/A   Clear
1:55 AM 53.6 °F - 51.8 °F 94% 30.21 in 10.0 mi Calm Calm - N/A   Clear
2:15 AM 51.8 °F - 50.0 °F 94% 30.21 in 10.0 mi Calm Calm - N/A   Clear
2:35 AM 50.0 °F - 50.0 °F 100% 30.21 in 10.0 mi Calm Calm - N/A   Clear
2:55 AM 50.0 °F - 50.0 °F 100% 30.21 in 10.0 mi Calm Calm - N/A   Clear
3:15 AM 51.8 °F - 51.8 °F 100% 30.21 in 10.0 mi Calm Calm - N/A   Clear
3:35 AM 50.0 °F - 50.0 °F 100% 30.22 in 10.0 mi Calm Calm - N/A   Clear
3:55 AM 50.0 °F - 50.0 °F 100% 30.22 in 10.0 mi Calm Calm - N/A   Clear
4:15 AM 50.0 °F - 50.0 °F 100% 30.22 in 10.0 mi Calm Calm - N/A   Clear
4:35 AM 50.0 °F - 50.0 °F 100% 30.22 in 10.0 mi Calm Calm - N/A   Clear
4:55 AM 50.0 °F - 50.0 °F 100% 30.22 in 10.0 mi Calm Calm - N/A   Clear
5:15 AM 50.0 °F - 50.0 °F 100% 30.22 in 10.0 mi Calm Calm - N/A   Clear
5:35 AM 50.0 °F - 50.0 °F 100% 30.22 in 10.0 mi Calm Calm - N/A   Clear
5:55 AM 50.0 °F - 50.0 °F 100% 30.22 in 10.0 mi Calm Calm - N/A   Clear
6:15 AM 50.0 °F - 50.0 °F 100% 30.22 in 10.0 mi Calm Calm - N/A   Clear
6:35 AM 50.0 °F - 50.0 °F 100% 30.23 in 10.0 mi Calm Calm - N/A   Clear
6:55 AM 51.8 °F - 51.8 °F 100% 30.23 in 10.0 mi Calm Calm - N/A   Clear
7:15 AM 55.4 °F - 55.4 °F 100% 30.23 in 10.0 mi Calm Calm - N/A   Clear
7:55 AM 59.0 °F - 57.2 °F 94% 30.24 in 10.0 mi Calm Calm - N/A   Clear
8:15 AM 62.6 °F - 57.2 °F 82% 30.24 in 10.0 mi Calm Calm - N/A   Clear
8:35 AM 64.4 °F - 57.2 °F 77% 30.24 in 10.0 mi Calm Calm - N/A   Clear
8:55 AM 66.2 °F - 59.0 °F 78% 30.24 in 10.0 mi Calm Calm - N/A   Clear
9:15 AM 68.0 °F - 57.2 °F 68% 30.24 in 10.0 mi Calm Calm - N/A   Clear
9:35 AM 71.6 °F - 57.2 °F 60% 30.24 in 10.0 mi Calm Calm - N/A   Clear
9:55 AM 73.4 °F - 57.2 °F 57% 30.24 in 10.0 mi Calm Calm - N/A   Clear
10:15 AM 73.4 °F - 57.2 °F 57% 30.24 in 10.0 mi Calm Calm - N/A   Clear
10:35 AM 75.2 °F - 57.2 °F 53% 30.24 in 10.0 mi Calm Calm - N/A   Clear
10:55 AM 75.2 °F - 55.4 °F 50% 30.24 in 10.0 mi NE 3.5 mph - N/A   Clear
11:15 AM 75.2 °F - 55.4 °F 50% 30.23 in 10.0 mi Calm Calm - N/A   Clear
11:35 AM 75.2 °F - 53.6 °F 47% 30.23 in 10.0 mi Calm Calm - N/A   Clear
11:55 AM 75.2 °F - 55.4 °F 50% 30.22 in 10.0 mi East 4.6 mph - N/A   Clear
12:15 PM 77.0 °F - 55.4 °F 47% 30.22 in 10.0 mi Calm Calm - N/A   Clear
12:35 PM 77.0 °F - 53.6 °F 44% 30.21 in 10.0 mi Calm Calm - N/A   Clear
12:55 PM 78.8 °F - 55.4 °F 44% 30.21 in 10.0 mi Calm Calm - N/A   Clear
1:15 PM 77.0 °F - 53.6 °F 44% 30.21 in 10.0 mi East 4.6 mph - N/A   Partly Cloudy
1:35 PM 77.0 °F - 53.6 °F 44% 30.20 in 10.0 mi Calm Calm - N/A   Partly Cloudy
1:55 PM 78.8 °F - 53.6 °F 42% 30.19 in 10.0 mi Calm Calm - N/A   Clear
2:15 PM 78.8 °F - 55.4 °F 44% 30.19 in 10.0 mi SE 4.6 mph - N/A   Scattered Clouds
2:35 PM 77.0 °F - 55.4 °F 47% 30.19 in 10.0 mi East 5.8 mph - N/A   Partly Cloudy
2:55 PM 78.8 °F - 55.4 °F 44% 30.18 in 10.0 mi Calm Calm - N/A   Clear
3:15 PM 78.8 °F - 55.4 °F 44% 30.18 in 10.0 mi Calm Calm - N/A   Partly Cloudy
3:35 PM 78.8 °F - 53.6 °F 42% 30.17 in 10.0 mi Calm Calm - N/A   Partly Cloudy
3:55 PM 75.2 °F - 55.4 °F 50% 30.17 in 10.0 mi Calm Calm - N/A   Partly Cloudy
4:15 PM 80.6 °F 80.5 °F 55.4 °F 42% 30.16 in 10.0 mi Calm Calm - N/A   Clear
4:35 PM 78.8 °F - 57.2 °F 47% 30.16 in 10.0 mi Calm Calm - N/A   Partly Cloudy
4:55 PM 78.8 °F - 53.6 °F 42% 30.16 in 10.0 mi Calm Calm - N/A   Clear
5:15 PM 78.8 °F - 55.4 °F 44% 30.16 in 10.0 mi Calm Calm - N/A   Clear
5:35 PM 78.8 °F - 55.4 °F 44% 30.15 in 10.0 mi Calm Calm - N/A   Clear
5:55 PM 78.8 °F - 55.4 °F 44% 30.16 in 10.0 mi East 8.1 mph - N/A   Clear
6:15 PM 77.0 °F - 55.4 °F 47% 30.15 in 10.0 mi Calm Calm - N/A   Clear
6:35 PM 77.0 °F - 55.4 °F 47% 30.15 in 10.0 mi East 4.6 mph - N/A   Clear
6:55 PM 75.2 °F - 55.4 °F 50% 30.15 in 10.0 mi Calm Calm - N/A   Clear
7:15 PM 75.2 °F - 57.2 °F 53% 30.15 in 10.0 mi Calm Calm - N/A   Clear
7:35 PM 73.4 °F - 57.2 °F 57% 30.15 in 10.0 mi Calm Calm - N/A   Clear
7:55 PM 69.8 °F - 57.2 °F 64% 30.16 in 10.0 mi Calm Calm - N/A   Clear
8:15 PM 68.0 °F - 57.2 °F 68% 30.15 in 10.0 mi Calm Calm - N/A   Clear
8:35 PM 66.2 °F - 57.2 °F 73% 30.15 in 10.0 mi Calm Calm - N/A   Clear
8:55 PM 62.6 °F - 57.2 °F 82% 30.16 in 10.0 mi Calm Calm - N/A   Clear
9:15 PM 62.6 °F - 57.2 °F 82% 30.17 in 10.0 mi Calm Calm - N/A   Clear
9:35 PM 62.6 °F - 57.2 °F 82% 30.17 in 10.0 mi Calm Calm - N/A   Clear
9:55 PM 62.6 °F - 57.2 °F 82% 30.17 in 10.0 mi Calm Calm - N/A   Clear
10:15 PM 62.6 °F - 57.2 °F 82% 30.17 in 10.0 mi Calm Calm - N/A   Clear
10:35 PM 59.0 °F - 57.2 °F 94% 30.17 in 10.0 mi Calm Calm - N/A   Clear
10:55 PM 57.2 °F - 57.2 °F 100% 30.17 in 10.0 mi Calm Calm - N/A   Clear
11:15 PM 59.0 °F - 57.2 °F 94% 30.17 in 10.0 mi Calm Calm - N/A   Clear
11:35 PM 57.2 °F - 57.2 °F 100% 30.18 in 10.0 mi Calm Calm - N/A   Clear
11:55 PM 55.4 °F - 55.4 °F 100% 30.18 in 10.0 mi Calm Calm - N/A   Clear